Weather History for Stevensville, MD

Change the Weather History Date:

Thursday, December 29, 2011

  Actual Average (KESN) Record (KESN)
Temperature  
Mean Temperature 37 °F -  
Max Temperature 42 °F 48 °F 60 °F (1954)
Min Temperature 32 °F 29 °F 14 °F (1955)
Degree Days  
Heating Degree Days 28    
Moisture  
Dew Point 26 °F    
Average Humidity 66    
Maximum Humidity 93    
Minimum Humidity 52    
Precipitation  
Precipitation 0.00 in - - ()
Sea Level Pressure  
Sea Level Pressure 30.03 in    
Wind  
Wind Speed 7 mph (SSW)    
Max Wind Speed 12 mph    
Max Gust Speed 21 mph    
Visibility 10 miles    
Events      
Averages and records for this station are not official NWS values.
T = Trace of Precipitation, MM = Missing Value Source: NWS Daily Summary

Daily Weather History Graph

Daily Weather History Graph

Search for Another Location

Airport:

Trip Planner

Search our weather history database for the weather conditions in past years. The results will help you decide how hot, cold, wet, or windy it might be!

Date:

Astronomy

Dec. 29, 2011 Rise Set
Actual Time 7:23 AM EST 4:51 PM EST
Civil Twilight 6:53 AM EST 5:21 PM EST
Nautical Twilight 6:20 AM EST 5:54 PM EST
Astronomical Twilight 5:47 AM EST 6:27 PM EST
Moon 10:18 AM EST (12/29) 10:22 PM EST (12/29)
Length of Visible Light 10h 27m
Length of Day
9h 27m
Waxing Crescent, 26% of the Moon is Illuminated
Dec 29
Waxing Crescent
Jan 1
First Quarter
Jan 9
Full
Jan 16
Last Quarter
Jan 23
New

Hourly Weather History & Observations

Time (EST) Temp. Windchill Dew Point Humidity Pressure Visibility Wind Dir Wind Speed Gust Speed Precip Events Conditions
12:03 AM 33.8 °F 25.3 °F 19.4 °F 56% 30.00 in 10.0 mi NW 11.5 mph 20.7 mph N/A   Clear
12:22 AM 33.8 °F 25.8 °F 19.4 °F 56% 30.01 in 10.0 mi WNW 10.4 mph 16.1 mph N/A   Clear
12:42 AM 33.8 °F 26.4 °F 19.4 °F 56% 30.01 in 10.0 mi WNW 9.2 mph 17.3 mph N/A   Clear
1:01 AM 33.8 °F 27.0 °F 19.4 °F 56% 30.02 in 10.0 mi WNW 8.1 mph - N/A   Clear
1:20 AM 33.8 °F 25.8 °F 19.4 °F 56% 30.03 in 10.0 mi WNW 10.4 mph - N/A   Clear
1:40 AM 33.8 °F 27.7 °F 19.4 °F 56% 30.03 in 10.0 mi WNW 6.9 mph 16.1 mph N/A   Clear
1:59 AM 33.8 °F 27.0 °F 19.4 °F 56% 30.04 in 10.0 mi NW 8.1 mph - N/A   Clear
2:18 AM 32.0 °F 24.8 °F 19.4 °F 60% 30.04 in 10.0 mi WNW 8.1 mph - N/A   Clear
2:37 AM 32.0 °F 23.6 °F 19.4 °F 60% 30.04 in 10.0 mi NW 10.4 mph - N/A   Clear
2:57 AM 32.0 °F 26.4 °F 19.4 °F 60% 30.03 in 10.0 mi NW 5.8 mph - N/A   Clear
3:16 AM 32.0 °F 25.6 °F 19.4 °F 60% 30.03 in 10.0 mi NW 6.9 mph - N/A   Clear
3:35 AM 32.0 °F 25.6 °F 19.4 °F 60% 30.02 in 10.0 mi NW 6.9 mph - N/A   Clear
3:55 AM 32.0 °F 25.6 °F 21.2 °F 64% 30.02 in 10.0 mi NW 6.9 mph - N/A   Clear
4:14 AM 32.0 °F 26.4 °F 21.2 °F 64% 30.03 in 10.0 mi NNW 5.8 mph - N/A   Clear
4:33 AM 32.0 °F 24.8 °F 21.2 °F 64% 30.03 in 10.0 mi NW 8.1 mph - N/A   Clear
4:52 AM 32.0 °F 24.2 °F 21.2 °F 64% 30.04 in 10.0 mi NW 9.2 mph - N/A   Clear
5:12 AM 32.0 °F 24.8 °F 21.2 °F 64% 30.04 in 10.0 mi NW 8.1 mph - N/A   Clear
5:31 AM 32.0 °F 25.6 °F 21.2 °F 64% 30.04 in 10.0 mi NNW 6.9 mph - N/A   Clear
5:50 AM 32.0 °F 24.8 °F 21.2 °F 64% 30.04 in 10.0 mi NNW 8.1 mph - N/A   Clear
6:10 AM 32.0 °F 24.8 °F 21.2 °F 64% 30.04 in 10.0 mi NNW 8.1 mph - N/A   Clear
6:29 AM 32.0 °F 24.2 °F 21.2 °F 64% 30.05 in 10.0 mi NNW 9.2 mph - N/A   Clear
8:05 AM 33.8 °F 29.6 °F 21.2 °F 60% 30.07 in 10.0 mi NW 4.6 mph - N/A   Clear
8:24 AM 33.8 °F 30.8 °F 21.2 °F 60% 30.08 in 10.0 mi NNW 3.5 mph - N/A   Clear
8:44 AM 33.8 °F - 23.0 °F 65% 30.09 in 10.0 mi Calm Calm - N/A   Clear
9:03 AM 33.8 °F - 21.2 °F 60% 30.11 in 10.0 mi Calm Calm - N/A   Scattered Clouds
9:22 AM 35.6 °F 32.8 °F 21.2 °F 56% 30.12 in 10.0 mi WSW 3.5 mph - N/A   Mostly Cloudy
9:42 AM 35.6 °F - 21.2 °F 56% 30.12 in 10.0 mi Calm Calm - N/A   Overcast
10:01 AM 37.4 °F - 21.2 °F 52% 30.11 in 10.0 mi Calm Calm - N/A   Mostly Cloudy
10:20 AM 37.4 °F - 21.2 °F 52% 30.11 in 10.0 mi Calm Calm - N/A   Mostly Cloudy
10:39 AM 37.4 °F 32.8 °F 23.0 °F 56% 30.10 in 10.0 mi SSE 5.8 mph - N/A   Overcast
10:59 AM 37.4 °F 32.8 °F 24.8 °F 60% 30.10 in 10.0 mi SE 5.8 mph - N/A   Mostly Cloudy
11:18 AM 37.4 °F 32.8 °F 23.0 °F 56% 30.09 in 10.0 mi SSE 5.8 mph - N/A   Mostly Cloudy
11:57 AM 39.2 °F 35.0 °F 24.8 °F 56% 30.06 in 10.0 mi SSE 5.8 mph - N/A   Scattered Clouds
12:16 PM 37.4 °F 33.8 °F 26.6 °F 65% 30.05 in 10.0 mi SE 4.6 mph - N/A   Mostly Cloudy
12:35 PM 37.4 °F 33.8 °F 26.6 °F 65% 30.05 in 10.0 mi South 4.6 mph - N/A   Scattered Clouds
12:54 PM 39.2 °F 33.6 °F 26.6 °F 61% 30.05 in 10.0 mi South 8.1 mph - N/A   Scattered Clouds
1:14 PM 39.2 °F 34.2 °F 28.4 °F 65% 30.05 in 10.0 mi South 6.9 mph - N/A   Mostly Cloudy
1:33 PM 39.2 °F 35.9 °F 28.4 °F 65% 30.04 in 10.0 mi South 4.6 mph - N/A   Mostly Cloudy
1:52 PM 41.0 °F 36.4 °F 28.4 °F 61% 30.03 in 10.0 mi SSE 6.9 mph - N/A   Mostly Cloudy
2:50 PM 41.0 °F 38.0 °F 30.2 °F 65% 30.02 in 10.0 mi South 4.6 mph - N/A   Overcast
3:09 PM 41.0 °F 37.1 °F 30.2 °F 65% 30.02 in 10.0 mi SSE 5.8 mph - N/A   Overcast
3:10 PM 41.0 °F 37.1 °F 30.2 °F 65% 30.02 in 10.0 mi SSE 5.8 mph - N/A   Overcast
3:29 PM 42.8 °F 37.5 °F 30.2 °F 61% 30.01 in 10.0 mi SSE 9.2 mph - N/A   Overcast
3:48 PM 41.0 °F 36.4 °F 30.2 °F 65% 30.00 in 10.0 mi SSE 6.9 mph - N/A   Scattered Clouds
4:46 PM 39.2 °F 35.0 °F 30.2 °F 70% 30.01 in 10.0 mi SSE 5.8 mph - N/A   Clear
5:05 PM 37.4 °F 32.1 °F 30.2 °F 75% 30.01 in 10.0 mi SSE 6.9 mph - N/A   Clear
5:24 PM 39.2 °F 35.0 °F 30.2 °F 70% 30.00 in 10.0 mi SSE 5.8 mph - N/A   Clear
5:44 PM 39.2 °F 33.6 °F 30.2 °F 70% 30.00 in 10.0 mi SSE 8.1 mph - N/A   Clear
6:03 PM 41.0 °F 35.8 °F 30.2 °F 65% 29.99 in 10.0 mi SSE 8.1 mph - N/A   Clear
6:22 PM 41.0 °F 36.4 °F 32.0 °F 70% 30.00 in 10.0 mi SSE 6.9 mph - N/A   Clear
6:41 PM 39.2 °F 34.2 °F 32.0 °F 75% 30.00 in 10.0 mi SSE 6.9 mph - N/A   Clear
7:01 PM 37.4 °F 32.1 °F 32.0 °F 81% 30.00 in 10.0 mi SSE 6.9 mph - N/A   Clear
7:20 PM 37.4 °F 32.8 °F 32.0 °F 81% 30.01 in 10.0 mi SSE 5.8 mph - N/A   Clear
7:39 PM 39.2 °F 34.2 °F 32.0 °F 75% 30.01 in 10.0 mi SSE 6.9 mph - N/A   Scattered Clouds
7:59 PM 39.2 °F 35.0 °F 32.0 °F 75% 30.01 in 10.0 mi SSE 5.8 mph - N/A   Scattered Clouds
8:18 PM 39.2 °F 35.0 °F 33.8 °F 81% 30.00 in 10.0 mi SSE 5.8 mph - N/A   Mostly Cloudy
8:37 PM 39.2 °F 35.0 °F 32.0 °F 75% 30.00 in 10.0 mi SSE 5.8 mph - N/A   Mostly Cloudy
8:56 PM 39.2 °F 35.0 °F 33.8 °F 81% 30.00 in 10.0 mi SE 5.8 mph - N/A   Overcast
9:16 PM 37.4 °F 33.8 °F 33.8 °F 87% 29.99 in 10.0 mi SSE 4.6 mph - N/A   Overcast
10:13 PM 37.4 °F 32.1 °F 33.8 °F 87% 29.98 in 10.0 mi SE 6.9 mph - N/A   Scattered Clouds
10:33 PM 37.4 °F 32.1 °F 35.6 °F 93% 29.98 in 10.0 mi SSE 6.9 mph - N/A   Mostly Cloudy
10:52 PM 37.4 °F 33.8 °F 35.6 °F 93% 29.99 in 10.0 mi SSE 4.6 mph - N/A   Mostly Cloudy
11:11 PM 37.4 °F 33.8 °F 35.6 °F 93% 29.99 in 10.0 mi SSE 4.6 mph - N/A   Scattered Clouds
11:50 PM 37.4 °F 33.8 °F 35.6 °F 93% 29.98 in 10.0 mi SSE 4.6 mph - N/A   Mostly Cloudy